Location: Antichan
(42.9728°N, 0.6667°E)
Time: 13:30:22
(UTC+00:00)

Cosmos 1536 - Pass Details

Date: 15 August 2020
Orbit: 541 x 557 km, 82.5° (Epoch: 24 September)

Event Time Altitude Azimuth Distance (km) Brightness Sun altitude
Exits shadow 22:03:14 32° 15° (NNE) 945 4.3 -27.2°
Drops below altitude 10° 22:05:28 10° 11° (N) 1,816 6.0 -27.4°
Sets 22:07:38 0° 10° (N) 2,712 7.0 -27.6°
